TimeEST,TemperatureF,Dew PointF,Humidity,Sea Level PressureIn,VisibilityMPH,Wind Direction,Wind SpeedMPH,Gust SpeedMPH,PrecipitationIn,Events,Conditions,WindDirDegrees,DateUTC
12:15 AM,37.4,23.0,56,30.18,10.0,West,5.8,-,N/A,,Clear,260,2012-12-23 05:15:00
12:55 AM,33.8,23.0,65,30.17,10.0,West,3.5,-,N/A,,Clear,260,2012-12-23 05:55:00
1:15 AM,33.8,23.0,65,30.17,10.0,WSW,6.9,-,N/A,,Clear,250,2012-12-23 06:15:00
1:35 AM,32.0,23.0,69,30.17,10.0,WSW,8.1,-,N/A,,Clear,250,2012-12-23 06:35:00
1:55 AM,32.0,23.0,69,30.17,10.0,West,4.6,-,N/A,,Clear,260,2012-12-23 06:55:00
2:15 AM,33.8,23.0,65,30.17,10.0,Calm,Calm,-,N/A,,Clear,0,2012-12-23 07:15:00
2:35 AM,33.8,23.0,65,30.17,10.0,Calm,Calm,-,N/A,,Clear,0,2012-12-23 07:35:00
2:55 AM,33.8,23.0,65,30.17,10.0,Calm,Calm,-,N/A,,Clear,0,2012-12-23 07:55:00
3:15 AM,32.0,23.0,69,30.17,10.0,Calm,Calm,-,N/A,,Clear,0,2012-12-23 08:15:00
3:35 AM,30.2,24.8,80,30.17,10.0,Calm,Calm,-,N/A,,Clear,0,2012-12-23 08:35:00
3:55 AM,30.2,23.0,75,30.17,10.0,Calm,Calm,-,N/A,,Clear,0,2012-12-23 08:55:00
4:15 AM,30.2,24.8,80,30.17,10.0,Calm,Calm,-,N/A,,Clear,0,2012-12-23 09:15:00
4:35 AM,30.2,23.0,75,30.17,10.0,Calm,Calm,-,N/A,,Clear,0,2012-12-23 09:35:00
4:55 AM,32.0,23.0,69,30.18,10.0,WSW,3.5,-,N/A,,Clear,240,2012-12-23 09:55:00
5:15 AM,30.2,23.0,75,30.18,10.0,Calm,Calm,-,N/A,,Clear,0,2012-12-23 10:15:00
5:35 AM,30.2,23.0,75,30.18,10.0,Calm,Calm,-,N/A,,Clear,0,2012-12-23 10:35:00
6:15 AM,32.0,24.8,75,30.18,10.0,Calm,Calm,-,N/A,,Clear,0,2012-12-23 11:15:00
6:35 AM,28.4,23.0,80,30.18,10.0,Calm,Calm,-,N/A,,Clear,0,2012-12-23 11:35:00
6:55 AM,28.4,24.8,86,30.19,10.0,WSW,3.5,-,N/A,,Clear,250,2012-12-23 11:55:00
7:15 AM,28.4,23.0,80,30.20,10.0,WSW,4.6,-,N/A,,Clear,250,2012-12-23 12:15:00
8:15 AM,32.0,28.4,87,30.20,10.0,Calm,Calm,-,N/A,,Clear,0,2012-12-23 13:15:00
8:35 AM,33.8,28.4,81,30.20,10.0,Calm,Calm,-,N/A,,Clear,0,2012-12-23 13:35:00
8:55 AM,37.4,30.2,75,30.21,10.0,Calm,Calm,-,N/A,,Clear,0,2012-12-23 13:55:00
9:15 AM,39.2,28.4,65,30.22,10.0,WSW,4.6,-,N/A,,Clear,240,2012-12-23 14:15:00
9:35 AM,39.2,28.4,65,30.22,10.0,WSW,3.5,-,N/A,,Clear,250,2012-12-23 14:35:00
10:15 AM,44.6,28.4,53,30.22,10.0,West,3.5,-,N/A,,Clear,280,2012-12-23 15:15:00
10:35 AM,44.6,28.4,53,30.22,10.0,West,5.8,-,N/A,,Clear,260,2012-12-23 15:35:00
10:55 AM,46.4,30.2,53,30.22,10.0,West,8.1,-,N/A,,Clear,270,2012-12-23 15:55:00
11:15 AM,48.2,28.4,46,30.21,10.0,West,8.1,-,N/A,,Clear,270,2012-12-23 16:15:00
11:35 AM,50.0,30.2,47,30.19,10.0,West,5.8,-,N/A,,Clear,260,2012-12-23 16:35:00
11:55 AM,53.6,30.2,41,30.18,10.0,WSW,5.8,-,N/A,,Clear,250,2012-12-23 16:55:00
12:15 PM,53.6,30.2,41,30.17,10.0,WSW,8.1,-,N/A,,Clear,250,2012-12-23 17:15:00
1:15 PM,59.0,30.2,34,30.14,10.0,WSW,9.2,-,N/A,,Clear,240,2012-12-23 18:15:00
1:35 PM,59.0,32.0,36,30.14,10.0,WSW,9.2,-,N/A,,Clear,240,2012-12-23 18:35:00
1:55 PM,60.8,32.0,34,30.13,10.0,WSW,9.2,-,N/A,,Clear,250,2012-12-23 18:55:00
2:15 PM,60.8,32.0,34,30.12,10.0,SW,10.4,-,N/A,,Clear,230,2012-12-23 19:15:00
2:35 PM,60.8,32.0,34,30.12,10.0,WSW,8.1,-,N/A,,Clear,240,2012-12-23 19:35:00
2:55 PM,60.8,30.2,31,30.11,10.0,SW,9.2,-,N/A,,Clear,230,2012-12-23 19:55:00
3:15 PM,59.0,30.2,34,30.11,10.0,SW,9.2,-,N/A,,Clear,220,2012-12-23 20:15:00
3:35 PM,59.0,32.0,36,30.11,10.0,SSW,10.4,-,N/A,,Clear,210,2012-12-23 20:35:00
3:55 PM,59.0,32.0,36,30.12,10.0,SSW,8.1,-,N/A,,Clear,210,2012-12-23 20:55:00
4:15 PM,59.0,32.0,36,30.12,10.0,SSW,10.4,-,N/A,,Clear,210,2012-12-23 21:15:00
4:35 PM,55.4,32.0,41,30.12,10.0,SSW,8.1,-,N/A,,Clear,210,2012-12-23 21:35:00
4:55 PM,55.4,32.0,41,30.11,10.0,SSW,6.9,-,N/A,,Clear,210,2012-12-23 21:55:00
5:35 PM,51.8,32.0,47,30.11,10.0,South,4.6,-,N/A,,Clear,190,2012-12-23 22:35:00
5:55 PM,51.8,32.0,47,30.11,10.0,SSW,4.6,-,N/A,,Clear,210,2012-12-23 22:55:00
6:15 PM,51.8,32.0,47,30.11,10.0,SSW,5.8,-,N/A,,Clear,200,2012-12-23 23:15:00
6:35 PM,50.0,32.0,50,30.12,10.0,SW,5.8,-,N/A,,Clear,220,2012-12-23 23:35:00
6:55 PM,50.0,32.0,50,30.12,10.0,SW,4.6,-,N/A,,Clear,220,2012-12-23 23:55:00
7:15 PM,50.0,32.0,50,30.12,10.0,SW,5.8,-,N/A,,Clear,230,2012-12-24 00:15:00
7:35 PM,50.0,32.0,50,30.13,10.0,SW,5.8,-,N/A,,Clear,220,2012-12-24 00:35:00
7:55 PM,50.0,32.0,50,30.13,10.0,Calm,Calm,-,N/A,,Clear,0,2012-12-24 00:55:00
8:15 PM,50.0,32.0,50,30.13,10.0,SW,4.6,-,N/A,,Clear,220,2012-12-24 01:15:00
8:35 PM,50.0,32.0,50,30.13,10.0,SW,4.6,-,N/A,,Clear,220,2012-12-24 01:35:00
8:55 PM,50.0,32.0,50,30.13,10.0,SW,5.8,-,N/A,,Scattered Clouds,220,2012-12-24 01:55:00
9:15 PM,50.0,33.8,54,30.13,10.0,SW,5.8,-,N/A,,Mostly Cloudy,220,2012-12-24 02:15:00
9:35 PM,48.2,33.8,58,30.13,10.0,SSW,5.8,-,N/A,,Scattered Clouds,210,2012-12-24 02:35:00
9:55 PM,46.4,33.8,62,30.14,10.0,WSW,4.6,-,N/A,,Scattered Clouds,240,2012-12-24 02:55:00
10:15 PM,46.4,33.8,62,30.14,10.0,SW,5.8,-,N/A,,Mostly Cloudy,230,2012-12-24 03:15:00
10:35 PM,50.0,33.8,54,30.14,10.0,WSW,5.8,-,N/A,,Overcast,240,2012-12-24 03:35:00
10:55 PM,50.0,33.8,54,30.13,10.0,SSW,9.2,-,N/A,,Overcast,210,2012-12-24 03:55:00
11:15 PM,50.0,33.8,54,30.14,10.0,WSW,5.8,-,N/A,,Overcast,240,2012-12-24 04:15:00
11:35 PM,50.0,33.8,54,30.13,10.0,WSW,5.8,-,N/A,,Overcast,240,2012-12-24 04:35:00
11:55 PM,48.2,33.8,58,30.13,10.0,SSW,6.9,-,N/A,,Overcast,210,2012-12-24 04:55:00